Погода в Дашогузе

Погода в Дашогузе : погода сейчас, прогноз погоды и архив. Всё, что Вы хотите узнать о погоде в Дашогузе!

Поиск расширенной информации на нашем сайте:

Другие новости

Новости СМИ2

Главная страница сайта

Новости сайта

02.10.2013

Напоминаем, что на нашем новом сайте вы можете получить высокодетализированные прогнозы погоды по пунктам России, СНГ и мира (включающие важные для авиации метеовеличины, такие как направление и скорость ветра, видимость, явления погоды, количество и форма облачности, нижняя и верхняя граница облачности), а также ознакомиться с разнообразными материалами по авиационной метеорологии и подборкой полезных ссылок на эту тему.

Сайт Метеоцентр.Азия посвящён разработке технологий оптимизации авиаметеорологического обслуживания, включая проектирование и перспективное создание нескольких автоматизированных авиаметеорологических систем:
- система выпуска высокодетальных прогностических карт явлений погоды для нижнего воздушного пространства по России и ближнему зарубежью;
- система верификации прогнозов TAF (выпускаемых синоптиками официальных АМСГ РФ и ближнего зарубежья) и AUTOTAF (выпускаемых сайтом Метеоцентр.Азия) - выявление ошибок, онлайн-сопоставление с фактической погодой METAR, автоматическое внесение коррективов в прогнозы при резком отклонении фактической погоды от прогноза, подсчёт оправдываемости прогнозов по элементам и в целом;
- система обработки, анализа и отображения авиаметеорологической информации для применения провайдерами метеорологической информации.

Рекомендуем: Купить ванну в москве акриловые ванны купить в москве.

Погода в Дашогузе - сегодня

Время (UTC), дата Ветер
(°,м/с) 
Видим.   Явления Облачность Т
(°С)
Тd
(°С)
f(%) Тe
(°С)
Pmin
(гПа)
dP
(гПа)
Po
(мм)
O2
(г/м3)
Тmin Tmax R s Состояние
почвы
18 26.05.17 300 (СЗ) 10 км    8/0 верхняя 
[Ci sp]
+25.4 +9.7 37 +26  1012  0.6  751  275    +33.9       
21 26.05.17 320 (СЗ) 10 км    8/0 верхняя 
[Ci sp]
+22.2 +12.7 55 +27  1011.7  -0.3  751  277           
00 27.05.17 350 (С) 10 км    3/0 верхняя 
[Ci fib]
+20.3 +13.3 64 +26  1011.8  0.1  751  279           
03 27.05.17 040 (СВ) 10 км    ясно 
+23.5 +14.4 57 +31  1012.8  752  276           
06 27.05.17 090 (В) 10 км    ясно 
+29.4 +9.2 28 +30  1012.6  -0.2  752  272  +19.6         
09 27.05.17 030 (СВ) 10 км    ясно 
+32.4 +7.6 21 +32  1012  -0.6  751  269           
12 27.05.17 140 (ЮВ) 10 км    1/1 2000 м 
[Cu hum]
+33.1 +7.6 21 +33  1010.3  -1.7  750  268           
15 27.05.17 060 (СВ) 10 км    6/0 верхняя 
[Ci sp]
+31.9 +8.5 23 +32  1010.4  0.1  750  269    +34.1       
18 27.05.17 090 (В) 10 км    8/0 средняя 
[Ac trans]
+27.7 +11.4 36 +31  1009  -1.3  749  272    +34.1       
21 27.05.17 050 (СВ) 10 км    8/0 средняя 
[Ac trans]
+23.8 +12.6 49 +29  1008.4  -0.6  749  275           
00 28.05.17 090 (В) 10 км    8/0 средняя 
[Ac trans]
+22.4 +11 48 +25  1008.3  -0.1  749  277           
03 28.05.17 110 (В) 10 км    10/0 верхняя 
[Ci sp]
+25.2 +10 38 +26  1008.4  0.1  749  274           
06 28.05.17 140 (ЮВ) 10 км    8/0 верхняя 
[Ci sp]
+30.5 +17.1 45 +43  1008.1  -0.3  749  268  +21.7         
09 28.05.17 130 (ЮВ) 10 км    8/0 верхняя 
[Ci sp]
+37 +9.4 19 +37  1006.1  -2  747  264           
12 28.05.17 230 (ЮЗ) 10 км    8/0 средняя, верхняя 
[Ac trans|Ci sp]
+39.4 +9 16 +39  1003.5  -2.7  745  261           
15 28.05.17 270 (З) 10  4000 м  метель  10/4 1500 м кучево-дожд., верхняя 
[Cb cap|Ci sp]
+35.5 +9.3 20 +36  1003.1  -0.4  745  264    +39.4       
18 28.05.17 260 (З) 10 км    6/0 верхняя 
[Ci sp]
+29.3 +10.7 32 +32  1004.5  1.5  746  270    +39.4       
21 28.05.17 330 (СЗ) 10 км    6/0 верхняя 
[Ci sp]
+24 +12.3 48 +28  1005.9  1.4  747  274           
00 29.05.17 330 (СЗ) 10 км    3/0 верхняя 
[Ci sp]
+19.9 +13.6 67 +26  1007.8  1.9  748  278           
03 29.05.17 350 (С) 10 км    3/0 верхняя 
[Ci fib]
+21.1 +13.6 62 +27  1010.1  2.2  750  278           
06 29.05.17 330 (СЗ) 10 км    3/0 верхняя 
[Ci fib]
+26.9 +9.9 34 +28  1012.5  2.4  752  274  +19.5         
09 29.05.17 320 (СЗ) 10 км    3/0 верхняя 
[Ci fib]
+29.6 +7.8 26 +30  1012.7  0.2  752  272           
12 29.05.17 290 (З) 11  10 км    4/4 1050 м 
[Cu hum]
+30.5 +7.4 24 +31  1012.8  0.1  752  271           
15 29.05.17 280 (З) 10 км    4/0 средняя 
[Ac lent]
+29.2 +6.2 23 +29  1013.6  0.8  753  273    +32.4       
18 29.05.17 350 (С) 10 км    6/0 средняя 
[Ac trans]
+24.4 +9.2 38 +24  1016.4  2.8  755  278    +32.4       
Время (UTC), дата Ветер
(°,м/с) 
Видим.   Явления Облачность Т
(°С)
Тd
(°С)
f(%) Тe
(°С)
Pmin
(гПа)
dP
(гПа)
Po
(мм)
O2
(г/м3)
Тmin Tmax R s Состояние
почвы

Для получения пояснительной информации подведите курсор к названию столбца.

ПОГОДА в Дашогузе - архив

Всё, что Вы хотите узнать о погоде в Дашогузе - удобно и подробно!

Выберите нужную дату (начиная с 1 января 2015* года) и нажмите кнопку "Найти".
Будут отображены архивные сводки погоды по пункту Дашогуз, начиная с указанной даты.


Отображать данные в формате CSV (для использования в таблицах Excel)


Внимание! Наш архив погоды предназначен исключительно для личного некоммерческого использования в познавательных целях. Если Вам необходимы официальные справки о состоянии погоды (для производственных, юридических, коммерческих и т.п. целей), обращайтесь в органы Росгидромета.

*Примечание: данная дата относится к архиву по метеостанциям СССР (Россия, СНГ, Балтия).
Архив по метеостанциям Зарубежной Европы и Азии (кроме Китая) хранится 10 дней, по другим регионам земного шара (Китай, Африка, Америка, Австралия, Океания) - 1 день.

Дашогуз - район местоположения метеостанции


Название, широта, долгота, высота метеостанции:
Дашогуз (Ташауз) 41.8°ш. 59.8°д. 82 м над ур. моря [Туркменистан]

Дополнительная информация

В oтличие oт бoльшинства пoгoдных сайтoв мы публикуем пoдрoбную метеoинфoрмацию в детальнoм прoфессиoнальнoм фoрмате.

Характеристики температуры и влажнoсти вoздуха измеряются на высoте 2 м в тени вдали oт зданий и деревьев.
Скoрoсть ветра измеряется на высoте 10 м (на урoвне рoста челoвека скoрoсть ветра ниже в 1.5-2 раза). Если метеoстанция нахoдится в гoрoде или в лесу, тo скoрoсть ветра занижена на 2-4 м/с пo сравнению с oткрытым местoм. Скoрoсть ветра над акватoриями крупных рек и oзёр, а также на вершинах хoлмoв на 2-5 м/с выше, чем в oбычных услoвиях.
Атмoсфернoе давление в разных тoчках местнoсти мoжет значительнo oтличаться oт давления на метеoстанции, в зависимoсти oт услoвий рельефа (при пoдъёме на 10 м давление пoнижается примернo на 1 мм рт.ст.).